Stündliche Wetter Abaytikau

Heute, 27 Februar, Samstag

Zeit Temperatur Niederschläge Wind Luftdruck Luftfeuchtigkeit
00:00 -9°C° 0 mm 1 m/S 573 mmHg 79%
01:00 -9°C° 0 mm 1 m/S 573 mmHg 76%
02:00 -9°C° 0 mm 1 m/S 573 mmHg 74%
03:00 -9°C° 0 mm 2 m/S 572 mmHg 73%
04:00 -9°C° 0 mm 1 m/S 572 mmHg 73%
05:00 -9°C° 0 mm 1 m/S 572 mmHg 73%
06:00 -9°C° 0 mm 1 m/S 572 mmHg 72%
07:00 -7°C° 0 mm 1 m/S 572 mmHg 75%
08:00 -4°C° 0 mm 1 m/S 573 mmHg 78%
09:00 -3°C° 0 mm 1 m/S 574 mmHg 80%
10:00 -2°C° 0 mm 1 m/S 574 mmHg 83%
11:00 -2°C° 0 mm 1 m/S 574 mmHg 86%
12:00 -3°C° 0 mm 2 m/S 573 mmHg 89%
13:00 -3°C° 0 mm 2 m/S 573 mmHg 89%
14:00 -1°C° 0 mm 1 m/S 573 mmHg 89%
15:00 -1°C° 0 mm 1 m/S 572 mmHg 88%
16:00 -3°C° 0 mm 1 m/S 572 mmHg 90%
17:00 -4°C° 0 mm 1 m/S 571 mmHg 93%
18:00 -6°C° 0 mm 1 m/S 570 mmHg 95%
19:00 -7°C° 0 mm 1 m/S 570 mmHg 93%
20:00 -8°C° 0 mm 1 m/S 570 mmHg 91%
21:00 -8°C° 0 mm 1 m/S 570 mmHg 89%
22:00 -10°C° 0 mm 2 m/S 569 mmHg 88%
23:00 -10°C° 0 mm 2 m/S 569 mmHg 87%

Morgen, 28 Februar, Sonntag

Zeit Temperatur Niederschläge Wind Luftdruck Luftfeuchtigkeit
00:00 -10°C° 0 mm 2 m/S 568 mmHg 86%
01:00 -12°C° 0 mm 2 m/S 568 mmHg 85%
02:00 -12°C° 0 mm 2 m/S 568 mmHg 84%
03:00 -12°C° 0 mm 2 m/S 568 mmHg 84%
04:00 -12°C° 0 mm 2 m/S 568 mmHg 85%
05:00 -12°C° 0 mm 2 m/S 568 mmHg 86%
06:00 -12°C° 0 mm 2 m/S 568 mmHg 87%
07:00 -10°C° 0 mm 2 m/S 569 mmHg 88%
08:00 -8°C° 0 mm 2 m/S 569 mmHg 88%
09:00 -8°C° 0 mm 3 m/S 570 mmHg 88%
10:00 -7°C° 0.1 mm 3 m/S 570 mmHg 89%
11:00 -6°C° 0.1 mm 3 m/S 570 mmHg 90%
12:00 -5°C° 0.1 mm 4 m/S 570 mmHg 91%
13:00 -5°C° 0.2 mm 4 m/S 570 mmHg 91%
14:00 -5°C° 0.2 mm 4 m/S 570 mmHg 91%
15:00 -5°C° 0.2 mm 4 m/S 570 mmHg 91%
16:00 -7°C° 0.2 mm 3 m/S 570 mmHg 93%
17:00 -8°C° 0.2 mm 3 m/S 569 mmHg 94%
18:00 -9°C° 0.2 mm 3 m/S 569 mmHg 95%
19:00 -9°C° 0.3 mm 2 m/S 569 mmHg 95%
20:00 -9°C° 0.3 mm 2 m/S 569 mmHg 94%
21:00 -10°C° 0.3 mm 2 m/S 569 mmHg 94%
22:00 -9°C° 0.7 mm 2 m/S 569 mmHg 94%
23:00 -9°C° 0.7 mm 2 m/S 569 mmHg 95%

übermorgen, 1 März, Montag

Zeit Temperatur Niederschläge Wind Luftdruck Luftfeuchtigkeit
00:00 -9°C° 0.7 mm 2 m/S 570 mmHg 95%
01:00 -10°C° 0.4 mm 3 m/S 570 mmHg 95%
02:00 -12°C° 0.4 mm 3 m/S 570 mmHg 95%
03:00 -12°C° 0.4 mm 3 m/S 570 mmHg 95%
04:00 -12°C° 0.2 mm 2 m/S 569 mmHg 96%
05:00 -13°C° 0.2 mm 2 m/S 569 mmHg 96%
06:00 -13°C° 0.2 mm 2 m/S 569 mmHg 96%
07:00 -13°C° 0.2 mm 2 m/S 570 mmHg 95%
08:00 -12°C° 0.2 mm 2 m/S 571 mmHg 95%
09:00 -9°C° 0.2 mm 1 m/S 572 mmHg 95%
10:00 -10°C° 0.2 mm 2 m/S 572 mmHg 90%
11:00 -9°C° 0.2 mm 2 m/S 572 mmHg 85%
12:00 -9°C° 0.2 mm 2 m/S 572 mmHg 81%
13:00 -9°C° 0.1 mm 2 m/S 572 mmHg 81%
14:00 -9°C° 0.1 mm 2 m/S 572 mmHg 82%
15:00 -9°C° 0.1 mm 2 m/S 572 mmHg 83%
16:00 -9°C° 0.1 mm 1 m/S 572 mmHg 87%
17:00 -11°C° 0.1 mm 1 m/S 571 mmHg 92%
18:00 -13°C° 0.1 mm 1 m/S 570 mmHg 96%
19:00 -13°C° 0 mm 1 m/S 570 mmHg 93%
20:00 -14°C° 0 mm 1 m/S 571 mmHg 91%
21:00 -16°C° 0 mm 2 m/S 571 mmHg 88%
22:00 -16°C° 0 mm 2 m/S 571 mmHg 88%
23:00 -16°C° 0 mm 2 m/S 571 mmHg 87%

2 März, Dienstag

Zeit Temperatur Niederschläge Wind Luftdruck Luftfeuchtigkeit
00:00 -16°C° 0 mm 2 m/S 571 mmHg 87%
01:00 -16°C° 0 mm 2 m/S 571 mmHg 87%
02:00 -16°C° 0 mm 2 m/S 571 mmHg 86%
03:00 -16°C° 0 mm 2 m/S 571 mmHg 85%
04:00 -17°C° 0 mm 2 m/S 571 mmHg 84%
05:00 -17°C° 0 mm 2 m/S 571 mmHg 83%
06:00 -18°C° 0 mm 2 m/S 571 mmHg 82%
07:00 -16°C° 0 mm 2 m/S 572 mmHg 79%
08:00 -12°C° 0 mm 1 m/S 573 mmHg 76%
09:00 -11°C° 0 mm 1 m/S 574 mmHg 74%
10:00 -10°C° 0 mm 1 m/S 574 mmHg 75%
11:00 -10°C° 0 mm 2 m/S 574 mmHg 77%
12:00 -9°C° 0 mm 2 m/S 574 mmHg 79%
13:00 -10°C° 0.1 mm 3 m/S 574 mmHg 81%
14:00 -10°C° 0.1 mm 3 m/S 574 mmHg 83%
15:00 -10°C° 0.1 mm 3 m/S 573 mmHg 85%
16:00 -12°C° 0.1 mm 3 m/S 572 mmHg 87%
17:00 -14°C° 0.1 mm 3 m/S 571 mmHg 90%
18:00 -15°C° 0.1 mm 3 m/S 571 mmHg 93%
19:00 -16°C° 0 mm 3 m/S 570 mmHg 92%
20:00 -16°C° 0 mm 3 m/S 570 mmHg 91%
21:00 -17°C° 0 mm 3 m/S 570 mmHg 90%
22:00 -17°C° 0 mm 3 m/S 570 mmHg 90%
23:00 -17°C° 0 mm 3 m/S 570 mmHg 90%

3 März, Mittwoch

Zeit Temperatur Niederschläge Wind Luftdruck Luftfeuchtigkeit
00:00 -17°C° 0 mm 3 m/S 569 mmHg 90%
01:00 -17°C° 0.1 mm 3 m/S 569 mmHg 90%
02:00 -18°C° 0.1 mm 4 m/S 569 mmHg 90%
03:00 -17°C° 0.1 mm 4 m/S 569 mmHg 90%
04:00 -17°C° 0 mm 3 m/S 569 mmHg 89%
05:00 -17°C° 0 mm 3 m/S 569 mmHg 89%
06:00 -17°C° 0 mm 3 m/S 568 mmHg 89%
07:00 -16°C° 0 mm 3 m/S 569 mmHg 87%
08:00 -15°C° 0 mm 3 m/S 569 mmHg 85%
09:00 -13°C° 0 mm 2 m/S 570 mmHg 83%
10:00 -13°C° 0.1 mm 3 m/S 570 mmHg 82%
11:00 -12°C° 0.1 mm 3 m/S 570 mmHg 81%
12:00 -10°C° 0.1 mm 3 m/S 571 mmHg 80%
13:00 -10°C° 0.3 mm 3 m/S 571 mmHg 82%
14:00 -10°C° 0.3 mm 3 m/S 571 mmHg 84%
15:00 -10°C° 0.3 mm 3 m/S 570 mmHg 87%
16:00 -12°C° 0.3 mm 2 m/S 570 mmHg 90%
17:00 -13°C° 0.3 mm 2 m/S 569 mmHg 93%
18:00 -15°C° 0.3 mm 2 m/S 568 mmHg 96%
19:00 -15°C° 0.1 mm 2 m/S 568 mmHg 94%
20:00 -14°C° 0.1 mm 1 m/S 569 mmHg 91%
21:00 -14°C° 0.1 mm 1 m/S 569 mmHg 89%
22:00 -16°C° 0.1 mm 2 m/S 569 mmHg 90%
23:00 -17°C° 0.1 mm 2 m/S 569 mmHg 91%

4 März, Donnerstag

Zeit Temperatur Niederschläge Wind Luftdruck Luftfeuchtigkeit
00:00 -17°C° 0.1 mm 2 m/S 569 mmHg 92%
01:00 -17°C° 0 mm 2 m/S 569 mmHg 91%
02:00 -18°C° 0 mm 2 m/S 569 mmHg 90%
03:00 -18°C° 0 mm 2 m/S 569 mmHg 90%
04:00 -18°C° 0 mm 2 m/S 569 mmHg 87%
05:00 -18°C° 0 mm 2 m/S 569 mmHg 85%
06:00 -18°C° 0 mm 2 m/S 569 mmHg 82%
07:00 -16°C° 0 mm 2 m/S 570 mmHg 79%
08:00 -14°C° 0 mm 2 m/S 572 mmHg 75%
09:00 -12°C° 0 mm 2 m/S 573 mmHg 72%
10:00 -10°C° 0 mm 2 m/S 573 mmHg 70%
11:00 -9°C° 0 mm 2 m/S 574 mmHg 68%
12:00 -8°C° 0 mm 2 m/S 574 mmHg 66%
13:00 -8°C° 0 mm 2 m/S 574 mmHg 68%
14:00 -8°C° 0 mm 2 m/S 574 mmHg 71%
15:00 -7°C° 0 mm 1 m/S 574 mmHg 74%
16:00 -9°C° 0 mm 1 m/S 573 mmHg 80%
17:00 -11°C° 0 mm 1 m/S 572 mmHg 85%
18:00 -13°C° 0 mm 1 m/S 571 mmHg 91%
19:00 -13°C° 0 mm 1 m/S 571 mmHg 84%
20:00 -15°C° 0 mm 2 m/S 572 mmHg 76%
21:00 -15°C° 0 mm 2 m/S 572 mmHg 69%
22:00 -15°C° 0 mm 2 m/S 572 mmHg 71%
23:00 -15°C° 0 mm 2 m/S 572 mmHg 73%
Mehr zeigen

Wir brauchen deine Erlaubnis

Meteoprog und unser Service Anbieter werden persönliche Daten aufbewahren, so wie Cookies, Geräte Bezeichnung oder ähnliche Technologien von deinem Gerät und Prozess, so wie Persönliche Daten Inhalte und Werbungen, genauso wie social Media und den Verkehr zu analysieren.

  • Aufbewahrung und/oder Zugang zu deiner Geräte Informationen.

    Cookies, Geräte Bezeichnung oder andere Informationen, können aufbewahrt oder Zugang zu deinem Gerät erhalten, für den Grund, der oben angegeben wird.

  • Personalisierte Werbung und Inhalte, Messungen, Einblick in das Publikum und Produkt Entwicklung.

    Werbungen und Inhalte können personalisiert werden, basierend auf ein Profil. Mehr Daten können besser personalisierte Werbungen und Inhalte hinzufügen. Werbung und Inhalte können gezeigt und gemessen werden. Einblicke über das Publikum, welche die Werbung gesehen haben und den Inhalt, können abgeleitet werden. So wie Daten können genutzt werden, um es zu verbessern oder die Benutzer Erfahrung zu verbessern das System und die Software.

Wenn du “Ich stimme zu” klickst, erlaubst du uns, die Cookies zu benutzen die Geräte Bezeichnung, den Web oder ähnliche Technologien zu benutzen. Deine Settings, können in deinem Gerät bei deinem Browser geändert werden.

Für den bestimmten Zweck, berechtigten Interessen beruhen darauf, mehr als auf den Inhalt. Du kannst mehr darüber in unseren Privaten und Cookie Politik lesen.